Location: Newark
(44.1667°N, 8.2500°E)
Time: 16:05:17
(UTC+00:00)

Vanguard 2 Rocket - All Passes

Search period start: 14 December 2019 00:00
Search period end: 24 December 2019 00:00
Orbit: 554 x 3326 km, 32.9° (Epoch: 14 December)

Date Brightness Start Highest point End Pass type
(mag) Time Alt. Az. Time Alt. Az. Time Alt. Az.
14 Dec - 14:01:01 10° SSW 14:15:11 26° SSE 14:26:02 10° ESE daylight
14 Dec - 16:14:55 10° SW 16:30:36 42° SSE 16:40:29 10° ESE visible
14 Dec - 18:32:17 10° WSW 18:45:07 45° S 18:52:37 10° ESE visible
14 Dec - 20:50:24 10° W 20:57:51 25° SSW 21:02:52 10° SSE visible
15 Dec - 13:01:37 10° S 13:14:13 21° SE 13:24:48 10° ESE daylight
15 Dec - 15:13:21 10° SW 15:29:47 39° SSE 15:40:55 10° E daylight
15 Dec - 17:30:02 10° WSW 17:44:56 48° S 17:53:46 10° ESE visible
15 Dec - 19:48:14 10° W 19:58:32 34° SSW 20:04:53 10° SE visible
16 Dec - 12:03:56 10° SSE 12:13:19 15° SE 12:21:53 10° ESE daylight
16 Dec - 14:12:20 10° SSW 14:28:45 35° SSE 14:40:55 10° E daylight
16 Dec - 16:27:51 10° WSW 16:44:23 48° S 16:54:38 10° ESE visible
16 Dec - 18:45:55 10° W 18:58:50 43° SSW 19:06:28 10° SE visible
16 Dec - 21:04:54 10° WSW 21:11:10 19° SW 21:15:44 10° S visible
17 Dec - 13:12:04 10° SSW 13:27:37 29° SSE 13:40:17 10° E daylight
17 Dec - 15:25:56 10° SW 15:43:29 47° SSE 15:55:11 10° E daylight
17 Dec - 17:43:30 10° WSW 17:58:42 49° S 18:07:43 10° ESE visible
17 Dec - 20:02:15 10° W 20:11:59 29° SSW 20:18:16 10° SSE visible
18 Dec - 12:12:49 10° S 12:26:32 23° SE 12:38:45 10° E daylight
18 Dec - 14:24:28 10° SW 14:42:19 43° SSE 14:55:20 10° E daylight
18 Dec - 16:41:07 10° WSW 16:58:09 52° S 17:08:39 10° ESE visible
18 Dec - 18:59:43 10° W 19:12:25 39° SSW 19:20:06 10° SE visible
18 Dec - 21:20:23 10° WSW 21:24:16 13° SW 21:27:29 10° SSW visible
19 Dec - 11:15:09 10° SSE 11:25:36 17° SE 11:35:37 10° ESE daylight
19 Dec - 13:23:39 10° SSW 13:41:00 38° SSE 13:55:00 10° E daylight
19 Dec - 15:38:56 10° WSW 15:57:11 52° S 16:09:16 10° ESE daylight
19 Dec - 17:57:08 10° W 18:12:22 47° SSW 18:21:31 10° SE visible
19 Dec - 20:16:36 10° W 20:25:13 23° SW 20:31:09 10° S visible
20 Dec - 10:23:33 10° SE 10:24:55 10° SE 10:26:18 10° SE daylight
20 Dec - 12:23:37 10° SSW 12:39:43 31° SSE 12:54:00 10° E daylight
20 Dec - 14:37:10 10° SW 14:55:54 50° SSE 15:09:30 10° E daylight
20 Dec - 16:54:36 10° WSW 17:11:51 52° S 17:22:33 10° ESE visible
20 Dec - 19:13:40 10° W 19:25:47 33° SSW 19:33:27 10° SSE visible
21 Dec - 11:24:38 10° S 11:38:35 25° SE 11:52:04 10° E daylight
21 Dec - 13:35:57 10° SW 13:54:26 45° SSE 14:09:18 10° E daylight
21 Dec - 15:52:15 10° WSW 16:10:52 55° S 16:23:14 10° ESE visible
21 Dec - 18:10:54 10° W 18:25:52 42° SSW 18:35:06 10° SE visible
21 Dec - 20:31:39 10° W 20:38:13 16° SW 20:43:14 10° SSW visible
22 Dec - 10:27:10 10° SSE 10:37:45 18° SE 10:48:33 10° E daylight
22 Dec - 12:35:27 10° SSW 12:52:56 40° SSE 13:08:34 10° E daylight
22 Dec - 14:50:16 10° WSW 15:09:31 55° S 15:23:32 10° ESE daylight
22 Dec - 17:08:14 10° W 17:25:26 50° SSW 17:36:18 10° SE visible
22 Dec - 19:27:56 10° W 19:38:55 26° SW 19:46:21 10° SSE visible
23 Dec - 09:35:01 10° SE 09:37:16 10° SE 09:39:32 10° ESE daylight
23 Dec - 11:35:46 10° SSW 11:51:35 33° SE 12:07:08 10° E daylight
23 Dec - 13:48:47 10° SW 14:07:54 52° SSE 14:23:24 10° E daylight
23 Dec - 16:05:45 10° WSW 16:24:30 55° S 16:37:05 10° ESE visible
23 Dec - 18:24:49 10° W 18:39:10 36° SSW 18:48:24 10° SSE visible
23 Dec - 20:49:37 10° WSW 20:51:01 10° SW 20:52:20 10° SW visible
